OBJECT BF, 60521

Orbit data source: Space-Track

You're viewing an Uncataloged Satellite

Recently launched and/or uncataloged satellites may have evolving metadata. Metadata may include but not limited to: Owner, Maufacturer, Bus, Motor, and Mission.

OBJECT BF, 60521 is a satellite in SSO that was launched on Fri, 16 Aug 2024 UTC via an FALCON 9 launch vehicle from the Air Force Western Test Range (AFWTR). Unknown objects in Earth's orbit typically refer to objects detected orbiting the Earth but have not yet been identified or cataloged. These objects could be anything from previously untracked satellites, spent rocket stages, debris from satellite collisions, or even natural meteoroids temporarily captured by Earth's gravity.

Loading next visibility...
Identifier
60521, 2024-149BF
Orbit
SSO
Country
Flag of TBDTBD
Related business
Flag of SESwedish Defence Research Agency (SE)
Manufacturer
FOI
Mission
Operational Defense Technology
Bus & Motor
CUBESAT 3U, Unknown motor
Mass
4 kg wet, 4 kg dry
Launch date (UTC)
2024-08-16 (1 year ago)
Launch vehicle
FALCON 9
Launch site
Air Force Western Test Range (AFWTR)
Object type
Unknown
Shape & HBR
Box, 0.1 m
Radar Cross Section
0.035 m², Medium (>0.1 m² and < 1m²)

Expand to show TLE details & history
Last TLE update: 19 hours ago

TLE from 19 hours ago
0 OBJECT BF
1 60521U 24149BF  25257.49666628  .00022699  00000-0  56644-3 0  9998
2 60521  97.4039 338.6410 0005385 173.7846 186.3468 15.40180946 60190
Epoch: 2025-09-14T11:55Z
TLE epoch observation values (Epoch: 2025-09-14T11:55:11.966Z)
Latitude
-0.00002°
Longitude
166.12631°
Altitude
452.345 km
Speed
7.639 km/s
True Right ascension
22h 34m 33s
True Declination
0° 00' 00"
Sunlit
Object was in full shadow at epoch
Visualization orbit readout
Latitude
Unknown
Longitude
Unknown
Altitude
Unknown
Speed
Unknown
Apparent Right ascension
Unknown
Apparent Declination
Unknown
Sunlit
N/A
Visualization observer readout
Local Sidereal Time
23:27:12
Azimuth
Unknown
Elevation
Unknown
Doppler factor
Unknown
Orbital elements
Apogee altitude
446.187 km
Perigee altitude
438.841 km
Semi-major axis
6,820.651 km
Eccentricity
0.00054
Inclination
97.4039°
RAAN
338.641°
Arg. of periapsis
173.7846°
True anomaly
186.33998°
Mean anomaly
186.3468°
Eccentric anomaly
186.34339°
Mean motion
3.85305 °/min
Orbital period
93.43 mins
BSTAR
0.00056644
Loading maneuver chart data...
Computing Atmospheric mass density...
Loading historical data...
Loading historical data...
Loading historical data...
Loading historical data...
Loading historical data...
Loading historical data...
Loading historical data...

Documentation

Showing up to 5 results
|